Year,Month,Day,Hour,Minute,Value (Times are PST for temperature in C)
2010,05,03,00,00,6.60
2010,05,03,00,01,6.60
2010,05,03,00,02,6.70
2010,05,03,00,03,6.70
2010,05,03,00,04,6.70
2010,05,03,00,05,6.70
2010,05,03,00,06,6.70
2010,05,03,00,07,6.70
2010,05,03,00,08,6.70
2010,05,03,00,09,6.70
2010,05,03,00,10,6.70
2010,05,03,00,11,6.70
2010,05,03,00,12,6.70
2010,05,03,00,13,6.70
2010,05,03,00,14,6.70
2010,05,03,00,15,6.70
2010,05,03,00,16,6.70
2010,05,03,00,17,6.70
2010,05,03,00,18,6.70
2010,05,03,00,19,6.70
2010,05,03,00,20,6.70
2010,05,03,00,21,6.60
2010,05,03,00,22,6.60
2010,05,03,00,23,6.60
2010,05,03,00,24,6.60
2010,05,03,00,25,6.60
2010,05,03,00,26,6.60
2010,05,03,00,27,6.60
2010,05,03,00,28,6.60
2010,05,03,00,29,6.60
2010,05,03,00,30,6.60
2010,05,03,00,31,6.60
2010,05,03,00,32,6.60
2010,05,03,00,33,6.60
2010,05,03,00,34,6.60
2010,05,03,00,35,6.60
2010,05,03,00,36,6.60
2010,05,03,00,37,6.60
2010,05,03,00,38,6.70
2010,05,03,00,39,6.70
2010,05,03,00,40,6.70
2010,05,03,00,41,6.70
2010,05,03,00,42,6.60
2010,05,03,00,43,6.60
2010,05,03,00,44,6.60
2010,05,03,00,45,6.70
2010,05,03,00,46,6.60
2010,05,03,00,47,6.70
2010,05,03,00,48,6.70
2010,05,03,00,49,6.70
2010,05,03,00,50,6.70
2010,05,03,00,51,6.70
2010,05,03,00,52,6.70
2010,05,03,00,53,6.70
2010,05,03,00,54,6.70
2010,05,03,00,55,6.70
2010,05,03,00,56,6.70
2010,05,03,00,57,6.70
2010,05,03,00,58,6.70
2010,05,03,00,59,6.70
2010,05,03,01,00,6.70
2010,05,03,01,01,6.70
2010,05,03,01,02,6.70
2010,05,03,01,03,6.70
2010,05,03,01,04,6.70
2010,05,03,01,05,6.70
2010,05,03,01,06,6.70
2010,05,03,01,07,6.70
2010,05,03,01,08,6.70
2010,05,03,01,09,6.70
2010,05,03,01,10,6.70
2010,05,03,01,11,6.70
2010,05,03,01,12,6.70
2010,05,03,01,13,6.70
2010,05,03,01,14,6.70
2010,05,03,01,15,6.70
2010,05,03,01,16,6.70
2010,05,03,01,17,6.70
2010,05,03,01,18,6.80
2010,05,03,01,19,6.80
2010,05,03,01,20,6.80
2010,05,03,01,21,6.70
2010,05,03,01,22,6.80
2010,05,03,01,23,6.80
2010,05,03,01,24,6.80
2010,05,03,01,25,6.80
2010,05,03,01,26,6.80
2010,05,03,01,27,6.90
2010,05,03,01,28,6.90
2010,05,03,01,29,7.00
2010,05,03,01,30,7.00
2010,05,03,01,31,7.10
2010,05,03,01,32,7.10
2010,05,03,01,33,7.10
2010,05,03,01,34,7.10
2010,05,03,01,35,7.20
2010,05,03,01,36,7.20
2010,05,03,01,37,7.20
2010,05,03,01,38,7.20
2010,05,03,01,39,7.30
2010,05,03,01,40,7.30
2010,05,03,01,41,7.30
2010,05,03,01,42,7.40
2010,05,03,01,43,7.40
2010,05,03,01,44,7.50
2010,05,03,01,45,7.60
2010,05,03,01,46,7.60
2010,05,03,01,47,7.60
2010,05,03,01,48,7.70
2010,05,03,01,49,7.80
2010,05,03,01,50,7.90
2010,05,03,01,51,8.00
2010,05,03,01,52,8.10
2010,05,03,01,53,8.10
2010,05,03,01,54,8.20
2010,05,03,01,55,8.30
2010,05,03,01,56,8.30
2010,05,03,01,57,8.30
2010,05,03,01,58,8.30
2010,05,03,01,59,8.30
2010,05,03,02,00,8.40
2010,05,03,02,01,8.50
2010,05,03,02,02,8.50
2010,05,03,02,03,8.60
2010,05,03,02,04,8.60
2010,05,03,02,05,8.60
2010,05,03,02,06,8.70
2010,05,03,02,07,8.70
2010,05,03,02,08,8.80
2010,05,03,02,09,8.80
2010,05,03,02,10,8.90
2010,05,03,02,11,9.00
2010,05,03,02,12,9.10
2010,05,03,02,13,9.10
2010,05,03,02,14,9.00
2010,05,03,02,15,8.90
2010,05,03,02,16,8.90
2010,05,03,02,17,8.90
2010,05,03,02,18,8.90
2010,05,03,02,19,8.90
2010,05,03,02,20,8.90
2010,05,03,02,21,8.80
2010,05,03,02,22,8.80
2010,05,03,02,23,8.80
2010,05,03,02,24,8.90
2010,05,03,02,25,8.90
2010,05,03,02,26,8.90
2010,05,03,02,27,8.90
2010,05,03,02,28,8.90
2010,05,03,02,29,8.90
2010,05,03,02,30,8.90
2010,05,03,02,31,8.90
2010,05,03,02,32,8.90
2010,05,03,02,33,8.90
2010,05,03,02,34,8.90
2010,05,03,02,35,8.90
2010,05,03,02,36,8.90
2010,05,03,02,37,8.80
2010,05,03,02,38,8.80
2010,05,03,02,39,8.80
2010,05,03,02,40,8.80
2010,05,03,02,41,8.70
2010,05,03,02,42,8.70
2010,05,03,02,43,8.60
2010,05,03,02,44,8.60
2010,05,03,02,45,8.60
2010,05,03,02,46,8.60
2010,05,03,02,47,8.50
2010,05,03,02,48,8.50
2010,05,03,02,49,8.50
2010,05,03,02,50,8.40
2010,05,03,02,51,8.40
2010,05,03,02,52,8.40
2010,05,03,02,53,8.30
2010,05,03,02,54,8.30
2010,05,03,02,55,8.30
2010,05,03,02,56,8.30
2010,05,03,02,57,8.30
2010,05,03,02,58,8.30
2010,05,03,02,59,8.30
2010,05,03,03,00,8.30
2010,05,03,03,01,8.20
2010,05,03,03,02,8.20
2010,05,03,03,03,8.20
2010,05,03,03,04,8.10
2010,05,03,03,05,8.10
2010,05,03,03,06,8.10
2010,05,03,03,07,8.00
2010,05,03,03,08,7.90
2010,05,03,03,09,7.90
2010,05,03,03,10,7.90
2010,05,03,03,11,7.90
2010,05,03,03,12,7.80
2010,05,03,03,13,7.80
2010,05,03,03,14,7.80
2010,05,03,03,15,7.80
2010,05,03,03,16,7.70
2010,05,03,03,17,7.70
2010,05,03,03,18,7.70
2010,05,03,03,19,7.70
2010,05,03,03,20,7.70
2010,05,03,03,21,7.70
2010,05,03,03,22,7.70
2010,05,03,03,23,7.70
2010,05,03,03,24,7.70
2010,05,03,03,25,7.70
2010,05,03,03,26,7.60
2010,05,03,03,27,7.60
2010,05,03,03,28,7.60
2010,05,03,03,29,7.60
2010,05,03,03,30,7.60
2010,05,03,03,31,7.60
2010,05,03,03,32,7.60
2010,05,03,03,33,7.60
2010,05,03,03,34,7.50
2010,05,03,03,35,7.50
2010,05,03,03,36,7.40
2010,05,03,03,37,7.40
2010,05,03,03,38,7.50
2010,05,03,03,39,7.50
2010,05,03,03,40,7.50
2010,05,03,03,41,7.40
2010,05,03,03,42,7.40
2010,05,03,03,43,7.40
2010,05,03,03,44,7.40
2010,05,03,03,45,7.40
2010,05,03,03,46,7.40
2010,05,03,03,47,7.40
2010,05,03,03,48,7.40
2010,05,03,03,49,7.40
2010,05,03,03,50,7.30
2010,05,03,03,51,7.30
2010,05,03,03,52,7.30
2010,05,03,03,53,7.30
2010,05,03,03,54,7.30
2010,05,03,03,55,7.30
2010,05,03,03,56,7.30
2010,05,03,03,57,7.30
2010,05,03,03,58,7.20
2010,05,03,03,59,7.20
2010,05,03,04,00,7.20
2010,05,03,04,01,7.10
2010,05,03,04,02,7.10
2010,05,03,04,03,7.10
2010,05,03,04,04,7.10
2010,05,03,04,05,7.10
2010,05,03,04,06,7.10
2010,05,03,04,07,7.10
2010,05,03,04,08,7.00
2010,05,03,04,09,7.00
2010,05,03,04,10,7.00
2010,05,03,04,11,7.00
2010,05,03,04,12,7.00
2010,05,03,04,13,6.90
2010,05,03,04,14,6.90
2010,05,03,04,15,6.90
2010,05,03,04,16,6.90
2010,05,03,04,17,6.80
2010,05,03,04,18,6.80
2010,05,03,04,19,6.80
2010,05,03,04,20,6.80
2010,05,03,04,21,6.80
2010,05,03,04,22,6.80
2010,05,03,04,23,6.80
2010,05,03,04,24,6.80
2010,05,03,04,25,6.80
2010,05,03,04,26,6.80
2010,05,03,04,27,6.70
2010,05,03,04,28,6.70
2010,05,03,04,29,6.70
2010,05,03,04,30,6.70
2010,05,03,04,31,6.70
2010,05,03,04,32,6.60
2010,05,03,04,33,6.60
2010,05,03,04,34,6.60
2010,05,03,04,35,6.50
2010,05,03,04,36,6.50
2010,05,03,04,37,6.40
2010,05,03,04,38,6.40
2010,05,03,04,39,6.40
2010,05,03,04,40,6.40
2010,05,03,04,41,6.40
2010,05,03,04,42,6.30
2010,05,03,04,43,6.40
2010,05,03,04,44,6.40
2010,05,03,04,45,6.40
2010,05,03,04,46,6.40
2010,05,03,04,47,6.40
2010,05,03,04,48,6.40
2010,05,03,04,49,6.50
2010,05,03,04,50,6.60
2010,05,03,04,51,6.60
2010,05,03,04,52,6.60
2010,05,03,04,53,6.60
2010,05,03,04,54,6.50
2010,05,03,04,55,6.50
2010,05,03,04,56,6.40
2010,05,03,04,57,6.30
2010,05,03,04,58,6.30
2010,05,03,04,59,6.20
2010,05,03,05,00,6.20
2010,05,03,05,01,6.10
2010,05,03,05,02,6.10
2010,05,03,05,03,6.00
2010,05,03,05,04,6.00
2010,05,03,05,05,6.00
2010,05,03,05,06,6.00
2010,05,03,05,07,6.10
2010,05,03,05,08,6.10
2010,05,03,05,09,6.10
2010,05,03,05,10,6.20
2010,05,03,05,11,6.20
2010,05,03,05,12,6.20
2010,05,03,05,13,6.20
2010,05,03,05,14,6.20
2010,05,03,05,15,6.10
2010,05,03,05,16,6.00
2010,05,03,05,17,6.00
2010,05,03,05,18,5.90
2010,05,03,05,19,5.90
2010,05,03,05,20,5.90
2010,05,03,05,21,5.90
2010,05,03,05,22,5.90
2010,05,03,05,23,5.90
2010,05,03,05,24,5.90
2010,05,03,05,25,6.00
2010,05,03,05,26,6.00
2010,05,03,05,27,6.10
2010,05,03,05,28,6.10
2010,05,03,05,29,6.20
2010,05,03,05,30,6.20
2010,05,03,05,31,6.30
2010,05,03,05,32,6.30
2010,05,03,05,33,6.30
2010,05,03,05,34,6.30
2010,05,03,05,35,6.30
2010,05,03,05,36,6.30
2010,05,03,05,37,6.30
2010,05,03,05,38,6.30
2010,05,03,05,39,6.30
2010,05,03,05,40,6.30
2010,05,03,05,41,6.30
2010,05,03,05,42,6.30
2010,05,03,05,43,6.30
2010,05,03,05,44,6.30
2010,05,03,05,45,6.30
2010,05,03,05,46,6.30
2010,05,03,05,47,6.30
2010,05,03,05,48,6.30
2010,05,03,05,49,6.30
2010,05,03,05,50,6.30
2010,05,03,05,51,6.30
2010,05,03,05,52,6.30
2010,05,03,05,53,6.30
2010,05,03,05,54,6.30
2010,05,03,05,55,6.20
2010,05,03,05,56,6.20
2010,05,03,05,57,6.20
2010,05,03,05,58,6.20
2010,05,03,05,59,6.20
2010,05,03,06,00,6.10
2010,05,03,06,01,6.20
2010,05,03,06,02,6.20
2010,05,03,06,03,6.20
2010,05,03,06,04,6.20
2010,05,03,06,05,6.20
2010,05,03,06,06,6.20
2010,05,03,06,07,6.20
2010,05,03,06,08,6.20
2010,05,03,06,09,6.30
2010,05,03,06,10,6.30
2010,05,03,06,11,6.30
2010,05,03,06,12,6.30
2010,05,03,06,13,6.30
2010,05,03,06,14,6.30
2010,05,03,06,15,6.30
2010,05,03,06,16,6.30
2010,05,03,06,17,6.30
2010,05,03,06,18,6.30
2010,05,03,06,19,6.30
2010,05,03,06,20,6.30
2010,05,03,06,21,6.30
2010,05,03,06,22,6.40
2010,05,03,06,23,6.40
2010,05,03,06,24,6.30
2010,05,03,06,25,6.30
2010,05,03,06,26,6.30
2010,05,03,06,27,6.30
2010,05,03,06,28,6.30
2010,05,03,06,29,6.20
2010,05,03,06,30,6.20
2010,05,03,06,31,6.20
2010,05,03,06,32,6.20
2010,05,03,06,33,6.20
2010,05,03,06,34,6.20
2010,05,03,06,35,6.20
2010,05,03,06,36,6.30
2010,05,03,06,37,6.30
2010,05,03,06,38,6.30
2010,05,03,06,39,6.30
2010,05,03,06,40,6.40
2010,05,03,06,41,6.40
2010,05,03,06,42,6.40
2010,05,03,06,43,6.40
2010,05,03,06,44,6.40
2010,05,03,06,45,6.30
2010,05,03,06,46,6.30
2010,05,03,06,47,6.30
2010,05,03,06,48,6.30
2010,05,03,06,49,6.30
2010,05,03,06,50,6.30
2010,05,03,06,51,6.30
2010,05,03,06,52,6.30
2010,05,03,06,53,6.30
2010,05,03,06,54,6.30
2010,05,03,06,55,6.30
2010,05,03,06,56,6.30
2010,05,03,06,57,6.30
2010,05,03,06,58,6.30
2010,05,03,06,59,6.40
2010,05,03,07,00,6.40
2010,05,03,07,01,6.40
2010,05,03,07,02,6.40
2010,05,03,07,03,6.40
2010,05,03,07,04,6.40
2010,05,03,07,05,6.40
2010,05,03,07,06,6.40
2010,05,03,07,07,6.50
2010,05,03,07,08,6.50
2010,05,03,07,09,6.50
2010,05,03,07,10,6.50
2010,05,03,07,11,6.50
2010,05,03,07,12,6.60
2010,05,03,07,13,6.60
2010,05,03,07,14,6.60
2010,05,03,07,15,6.70
2010,05,03,07,16,6.70
2010,05,03,07,17,6.70
2010,05,03,07,18,6.80
2010,05,03,07,19,6.80
2010,05,03,07,20,6.80
2010,05,03,07,21,6.80
2010,05,03,07,22,6.80
2010,05,03,07,23,6.80
2010,05,03,07,24,6.80
2010,05,03,07,25,6.90
2010,05,03,07,26,6.80
2010,05,03,07,27,6.90
2010,05,03,07,28,6.90
2010,05,03,07,29,6.90
2010,05,03,07,30,6.90
2010,05,03,07,31,6.90
2010,05,03,07,32,6.90
2010,05,03,07,33,6.90
2010,05,03,07,34,6.90
2010,05,03,07,35,6.90
2010,05,03,07,36,6.90
2010,05,03,07,37,7.00
2010,05,03,07,38,7.00
2010,05,03,07,39,7.10
2010,05,03,07,40,7.10
2010,05,03,07,41,7.10
2010,05,03,07,42,7.20
2010,05,03,07,43,7.20
2010,05,03,07,44,7.20
2010,05,03,07,45,7.20
2010,05,03,07,46,7.20
2010,05,03,07,47,7.20
2010,05,03,07,48,7.20
2010,05,03,07,49,7.20
2010,05,03,07,50,7.30
2010,05,03,07,51,7.30
2010,05,03,07,52,7.30
2010,05,03,07,53,7.30
2010,05,03,07,54,7.40
2010,05,03,07,55,7.40
2010,05,03,07,56,7.40
2010,05,03,07,57,7.40
2010,05,03,07,58,7.40
2010,05,03,07,59,7.40
2010,05,03,08,00,7.40
2010,05,03,08,01,7.40
2010,05,03,08,02,7.40
2010,05,03,08,03,7.40
2010,05,03,08,04,7.40
2010,05,03,08,05,7.40
2010,05,03,08,06,7.40
2010,05,03,08,07,7.40
2010,05,03,08,08,7.40
2010,05,03,08,09,7.50
2010,05,03,08,10,7.50
2010,05,03,08,11,7.50
2010,05,03,08,12,7.50
2010,05,03,08,13,7.50
2010,05,03,08,14,7.50
2010,05,03,08,15,7.50
2010,05,03,08,16,7.50
2010,05,03,08,17,7.50
2010,05,03,08,18,7.50
2010,05,03,08,19,7.50
2010,05,03,08,20,7.50
2010,05,03,08,21,7.50
2010,05,03,08,22,7.50
2010,05,03,08,23,7.50
2010,05,03,08,24,7.50
2010,05,03,08,25,7.50
2010,05,03,08,26,7.60
2010,05,03,08,27,7.60
2010,05,03,08,28,7.60
2010,05,03,08,29,7.70
2010,05,03,08,30,7.70
2010,05,03,08,31,7.70
2010,05,03,08,32,7.80
2010,05,03,08,33,7.80
2010,05,03,08,34,7.80
2010,05,03,08,35,7.80
2010,05,03,08,36,7.90
2010,05,03,08,37,7.90
2010,05,03,08,38,7.90
2010,05,03,08,39,7.90
2010,05,03,08,40,7.90
2010,05,03,08,41,7.90
2010,05,03,08,42,7.90
2010,05,03,08,43,7.90
2010,05,03,08,44,7.90
2010,05,03,08,45,7.90
2010,05,03,08,46,7.90
2010,05,03,08,47,7.90
2010,05,03,08,48,7.90
2010,05,03,08,49,7.90
2010,05,03,08,50,7.90
2010,05,03,08,51,7.90
2010,05,03,08,52,7.90
2010,05,03,08,53,7.90
2010,05,03,08,54,7.90
2010,05,03,08,55,8.00
2010,05,03,08,56,8.00
2010,05,03,08,57,8.00
2010,05,03,08,58,7.90
2010,05,03,08,59,7.90
2010,05,03,09,00,7.90
2010,05,03,09,01,7.90
2010,05,03,09,02,8.00
2010,05,03,09,03,8.00
2010,05,03,09,04,8.10
2010,05,03,09,05,8.10
2010,05,03,09,06,8.10
2010,05,03,09,07,8.10
2010,05,03,09,08,8.10
2010,05,03,09,09,8.20
2010,05,03,09,10,8.20
2010,05,03,09,11,8.30
2010,05,03,09,12,8.30
2010,05,03,09,13,8.40
2010,05,03,09,14,8.50
2010,05,03,09,15,8.60
2010,05,03,09,16,8.60
2010,05,03,09,17,8.60
2010,05,03,09,18,8.60
2010,05,03,09,19,8.70
2010,05,03,09,20,8.70
2010,05,03,09,21,8.70
2010,05,03,09,22,8.70
2010,05,03,09,23,8.70
2010,05,03,09,24,8.70
2010,05,03,09,25,8.70
2010,05,03,09,26,8.80
2010,05,03,09,27,8.80
2010,05,03,09,28,8.80
2010,05,03,09,29,8.80
2010,05,03,09,30,8.80
2010,05,03,09,31,8.80
2010,05,03,09,32,8.90
2010,05,03,09,33,8.90
2010,05,03,09,34,9.00
2010,05,03,09,35,9.00
2010,05,03,09,36,8.90
2010,05,03,09,37,8.90
2010,05,03,09,38,8.90
2010,05,03,09,39,8.90
2010,05,03,09,40,8.90
2010,05,03,09,41,8.90
2010,05,03,09,42,8.90
2010,05,03,09,43,8.90
2010,05,03,09,44,8.80
2010,05,03,09,45,8.80
2010,05,03,09,46,8.80
2010,05,03,09,47,8.80
2010,05,03,09,48,8.80
2010,05,03,09,49,8.80
2010,05,03,09,50,8.80
2010,05,03,09,51,8.80
2010,05,03,09,52,8.80
2010,05,03,09,53,8.80
2010,05,03,09,54,8.70
2010,05,03,09,55,8.80
2010,05,03,09,56,8.80
2010,05,03,09,57,8.80
2010,05,03,09,58,8.70
2010,05,03,09,59,8.60
2010,05,03,10,00,8.60
2010,05,03,10,01,8.60
2010,05,03,10,02,8.60
2010,05,03,10,03,8.60
2010,05,03,10,04,8.70
2010,05,03,10,05,8.70
2010,05,03,10,06,8.70
2010,05,03,10,07,8.70
2010,05,03,10,08,8.80
2010,05,03,10,09,8.80
2010,05,03,10,10,8.80
2010,05,03,10,11,8.80
2010,05,03,10,12,8.90
2010,05,03,10,13,8.90
2010,05,03,10,14,9.00
2010,05,03,10,15,9.10
2010,05,03,10,16,9.20
2010,05,03,10,17,9.20
2010,05,03,10,18,9.20
2010,05,03,10,19,9.30
2010,05,03,10,20,9.40
2010,05,03,10,21,9.50
2010,05,03,10,22,9.60
2010,05,03,10,23,9.60
2010,05,03,10,24,9.60
2010,05,03,10,25,9.60
2010,05,03,10,26,9.60
2010,05,03,10,27,9.50
2010,05,03,10,28,9.50
2010,05,03,10,29,9.40
2010,05,03,10,30,9.40
2010,05,03,10,31,9.50
2010,05,03,10,32,9.50
2010,05,03,10,33,9.60
2010,05,03,10,34,9.60
2010,05,03,10,35,9.60
2010,05,03,10,36,9.70
2010,05,03,10,37,9.70
2010,05,03,10,38,9.70
2010,05,03,10,39,9.80
2010,05,03,10,40,9.80
2010,05,03,10,41,9.80
2010,05,03,10,42,9.80
2010,05,03,10,43,9.80
2010,05,03,10,44,9.90
2010,05,03,10,45,10.00
2010,05,03,10,46,10.00
2010,05,03,10,47,10.00
2010,05,03,10,48,9.90
2010,05,03,10,49,9.90
2010,05,03,10,50,10.00
2010,05,03,10,51,10.00
2010,05,03,10,52,10.10
2010,05,03,10,53,10.10
2010,05,03,10,54,10.10
2010,05,03,10,55,10.20
2010,05,03,10,56,10.20
2010,05,03,10,57,10.20
2010,05,03,10,58,10.20
2010,05,03,10,59,10.20
2010,05,03,11,00,10.20
2010,05,03,11,01,10.20
2010,05,03,11,02,10.20
2010,05,03,11,03,10.20
2010,05,03,11,04,10.20
2010,05,03,11,05,10.10
2010,05,03,11,06,10.10
2010,05,03,11,07,10.10
2010,05,03,11,08,10.10
2010,05,03,11,09,10.10
2010,05,03,11,10,10.20
2010,05,03,11,11,10.20
2010,05,03,11,12,10.20
2010,05,03,11,13,10.20
2010,05,03,11,14,10.30
2010,05,03,11,15,10.30
2010,05,03,11,16,10.20
2010,05,03,11,17,10.20
2010,05,03,11,18,10.20
2010,05,03,11,19,10.20
2010,05,03,11,20,10.20
2010,05,03,11,21,10.30
2010,05,03,11,22,10.30
2010,05,03,11,23,10.30
2010,05,03,11,24,10.30
2010,05,03,11,25,10.30
2010,05,03,11,26,10.30
2010,05,03,11,27,10.30
2010,05,03,11,28,10.40
2010,05,03,11,29,10.40
2010,05,03,11,30,10.60
2010,05,03,11,31,10.60
2010,05,03,11,32,10.50
2010,05,03,11,33,10.50
2010,05,03,11,34,10.40
2010,05,03,11,35,10.40
2010,05,03,11,36,10.30
2010,05,03,11,37,10.30
2010,05,03,11,38,10.40
2010,05,03,11,39,10.50
2010,05,03,11,40,10.60
2010,05,03,11,41,10.60
2010,05,03,11,42,10.70
2010,05,03,11,43,10.80
2010,05,03,11,44,10.80
2010,05,03,11,45,10.80
2010,05,03,11,46,10.80
2010,05,03,11,47,10.80
2010,05,03,11,48,10.70
2010,05,03,11,49,10.60
2010,05,03,11,50,10.40
2010,05,03,11,51,10.40
2010,05,03,11,52,10.50
2010,05,03,11,53,10.50
2010,05,03,11,54,10.60
2010,05,03,11,55,10.60
2010,05,03,11,56,10.60
2010,05,03,11,57,10.50
2010,05,03,11,58,10.40
2010,05,03,11,59,10.40
2010,05,03,12,00,10.40
2010,05,03,12,01,10.40
2010,05,03,12,02,10.30
2010,05,03,12,03,10.30
2010,05,03,12,04,10.30
2010,05,03,12,05,10.40
2010,05,03,12,06,10.40
2010,05,03,12,07,10.50
2010,05,03,12,08,10.50
2010,05,03,12,09,10.60
2010,05,03,12,10,10.60
2010,05,03,12,11,10.60
2010,05,03,12,12,10.70
2010,05,03,12,13,10.70
2010,05,03,12,14,10.70
2010,05,03,12,15,10.70
2010,05,03,12,16,10.60
2010,05,03,12,17,10.60
2010,05,03,12,18,10.60
2010,05,03,12,19,10.70
2010,05,03,12,20,10.70
2010,05,03,12,21,10.70
2010,05,03,12,22,10.60
2010,05,03,12,23,10.60
2010,05,03,12,24,10.70
2010,05,03,12,25,10.70
2010,05,03,12,26,10.70
2010,05,03,12,27,10.70
2010,05,03,12,28,10.70
2010,05,03,12,29,10.80
2010,05,03,12,30,10.80
2010,05,03,12,31,10.80
2010,05,03,12,32,10.80
2010,05,03,12,33,10.80
2010,05,03,12,34,10.80
2010,05,03,12,35,10.90
2010,05,03,12,36,11.00
2010,05,03,12,37,10.80
2010,05,03,12,38,10.70
2010,05,03,12,39,10.60
2010,05,03,12,40,10.60
2010,05,03,12,41,10.50
2010,05,03,12,42,10.60
2010,05,03,12,43,10.60
2010,05,03,12,44,10.60
2010,05,03,12,45,10.60
2010,05,03,12,46,10.60
2010,05,03,12,47,10.70
2010,05,03,12,48,10.80
2010,05,03,12,49,10.80
2010,05,03,12,50,10.80
2010,05,03,12,51,10.80
2010,05,03,12,52,10.80
2010,05,03,12,53,10.80
2010,05,03,12,54,10.80
2010,05,03,12,55,10.80
2010,05,03,12,56,10.90
2010,05,03,12,57,11.00
2010,05,03,12,58,11.00
2010,05,03,12,59,10.80
2010,05,03,13,00,10.80
2010,05,03,13,01,10.80
2010,05,03,13,02,10.80
2010,05,03,13,03,10.80
2010,05,03,13,04,10.80
2010,05,03,13,05,10.80
2010,05,03,13,06,10.80
2010,05,03,13,07,10.80
2010,05,03,13,08,10.80
2010,05,03,13,09,10.70
2010,05,03,13,10,10.70
2010,05,03,13,11,10.70
2010,05,03,13,12,10.60
2010,05,03,13,13,10.60
2010,05,03,13,14,10.70
2010,05,03,13,15,10.70
2010,05,03,13,16,10.80
2010,05,03,13,17,10.70
2010,05,03,13,18,10.70
2010,05,03,13,19,10.70
2010,05,03,13,20,10.80
2010,05,03,13,21,10.80
2010,05,03,13,22,10.80
2010,05,03,13,23,10.90
2010,05,03,13,24,11.00
2010,05,03,13,25,11.10
2010,05,03,13,26,11.10
2010,05,03,13,27,11.10
2010,05,03,13,28,11.10
2010,05,03,13,29,11.10
2010,05,03,13,30,11.10
2010,05,03,13,31,11.20
2010,05,03,13,32,11.20
2010,05,03,13,33,11.20
2010,05,03,13,34,11.10
2010,05,03,13,35,11.00
2010,05,03,13,36,10.90
2010,05,03,13,37,10.80
2010,05,03,13,38,10.80
2010,05,03,13,39,10.80
2010,05,03,13,40,10.90
2010,05,03,13,41,11.00
2010,05,03,13,42,11.10
2010,05,03,13,43,11.20
2010,05,03,13,44,11.30
2010,05,03,13,45,11.30
2010,05,03,13,46,11.20
2010,05,03,13,47,11.10
2010,05,03,13,48,11.20
2010,05,03,13,49,11.10
2010,05,03,13,50,11.00
2010,05,03,13,51,10.90
2010,05,03,13,52,11.00
2010,05,03,13,53,11.10
2010,05,03,13,54,11.10
2010,05,03,13,55,11.10
2010,05,03,13,56,11.10
2010,05,03,13,57,11.10
2010,05,03,13,58,11.00
2010,05,03,13,59,10.90
2010,05,03,14,00,11.00
2010,05,03,14,01,11.00
2010,05,03,14,02,11.10
2010,05,03,14,03,11.10
2010,05,03,14,04,10.90
2010,05,03,14,05,10.80
2010,05,03,14,06,10.90
2010,05,03,14,07,10.90
2010,05,03,14,08,11.00
2010,05,03,14,09,11.00
2010,05,03,14,10,10.90
2010,05,03,14,11,10.80
2010,05,03,14,12,10.80
2010,05,03,14,13,10.70
2010,05,03,14,14,10.70
2010,05,03,14,15,10.60
2010,05,03,14,16,10.50
2010,05,03,14,17,10.40
2010,05,03,14,18,10.50
2010,05,03,14,19,10.60
2010,05,03,14,20,10.60
2010,05,03,14,21,10.70
2010,05,03,14,22,10.80
2010,05,03,14,23,10.70
2010,05,03,14,24,10.60
2010,05,03,14,25,10.50
2010,05,03,14,26,10.50
2010,05,03,14,27,10.50
2010,05,03,14,28,10.50
2010,05,03,14,29,10.50
2010,05,03,14,30,10.50
2010,05,03,14,31,10.60
2010,05,03,14,32,10.60
2010,05,03,14,33,10.60
2010,05,03,14,34,10.60
2010,05,03,14,35,10.60
2010,05,03,14,36,10.50
2010,05,03,14,37,10.40
2010,05,03,14,38,10.30
2010,05,03,14,39,10.20
2010,05,03,14,40,10.20
2010,05,03,14,41,10.30
2010,05,03,14,42,10.30
2010,05,03,14,43,10.40
2010,05,03,14,44,10.40
2010,05,03,14,45,10.50
2010,05,03,14,46,10.70
2010,05,03,14,47,10.70
2010,05,03,14,48,10.60
2010,05,03,14,49,10.50
2010,05,03,14,50,10.40
2010,05,03,14,51,10.30
2010,05,03,14,52,10.20
2010,05,03,14,53,10.30
2010,05,03,14,54,10.30
2010,05,03,14,55,10.30
2010,05,03,14,56,10.40
2010,05,03,14,57,10.50
2010,05,03,14,58,10.60
2010,05,03,14,59,10.50
2010,05,03,15,00,10.60
2010,05,03,15,01,10.60
2010,05,03,15,02,10.50
2010,05,03,15,03,10.40
2010,05,03,15,04,10.30
2010,05,03,15,05,10.30
2010,05,03,15,06,10.30
2010,05,03,15,07,10.20
2010,05,03,15,08,10.20
2010,05,03,15,09,10.30
2010,05,03,15,10,10.30
2010,05,03,15,11,10.30
2010,05,03,15,12,10.20
2010,05,03,15,13,10.00
2010,05,03,15,14,10.00
2010,05,03,15,15,10.00
2010,05,03,15,16,10.00
2010,05,03,15,17,10.10
2010,05,03,15,18,10.10
2010,05,03,15,19,10.10
2010,05,03,15,20,10.10
2010,05,03,15,21,10.10
2010,05,03,15,22,10.10
2010,05,03,15,23,10.10
2010,05,03,15,24,10.10
2010,05,03,15,25,10.10
2010,05,03,15,26,10.10
2010,05,03,15,27,10.10
2010,05,03,15,28,10.20
2010,05,03,15,29,10.20
2010,05,03,15,30,10.10
2010,05,03,15,31,9.90
2010,05,03,15,32,9.70
2010,05,03,15,33,9.60
2010,05,03,15,34,9.70
2010,05,03,15,35,9.80
2010,05,03,15,36,9.90
2010,05,03,15,37,9.90
2010,05,03,15,38,9.80
2010,05,03,15,39,9.90
2010,05,03,15,40,9.80
2010,05,03,15,41,9.90
2010,05,03,15,42,9.90
2010,05,03,15,43,9.90
2010,05,03,15,44,9.90
2010,05,03,15,45,9.90
2010,05,03,15,46,9.90
2010,05,03,15,47,9.90
2010,05,03,15,48,9.90
2010,05,03,15,49,9.80
2010,05,03,15,50,9.80
2010,05,03,15,51,9.90
2010,05,03,15,52,9.90
2010,05,03,15,53,9.80
2010,05,03,15,54,9.70
2010,05,03,15,55,9.80
2010,05,03,15,56,9.90
2010,05,03,15,57,9.90
2010,05,03,15,58,9.90
2010,05,03,15,59,9.80
2010,05,03,16,00,9.80
2010,05,03,16,01,9.70
2010,05,03,16,02,9.80
2010,05,03,16,03,9.80
2010,05,03,16,04,9.80
2010,05,03,16,05,9.80
2010,05,03,16,06,9.80
2010,05,03,16,07,9.70
2010,05,03,16,08,9.60
2010,05,03,16,09,9.60
2010,05,03,16,10,9.60
2010,05,03,16,11,9.60
2010,05,03,16,12,9.60
2010,05,03,16,13,9.60
2010,05,03,16,14,9.70
2010,05,03,16,15,9.70
2010,05,03,16,16,9.60
2010,05,03,16,17,9.70
2010,05,03,16,18,9.70
2010,05,03,16,19,9.70
2010,05,03,16,20,9.60
2010,05,03,16,21,9.60
2010,05,03,16,22,9.60
2010,05,03,16,23,9.70
2010,05,03,16,24,9.70
2010,05,03,16,25,9.70
2010,05,03,16,26,9.70
2010,05,03,16,27,9.70
2010,05,03,16,28,9.60
2010,05,03,16,29,9.70
2010,05,03,16,30,9.70
2010,05,03,16,31,9.70
2010,05,03,16,32,9.60
2010,05,03,16,33,9.60
2010,05,03,16,34,9.60
2010,05,03,16,35,9.60
2010,05,03,16,36,9.60
2010,05,03,16,37,9.60
2010,05,03,16,38,9.50
2010,05,03,16,39,9.50
2010,05,03,16,40,9.40
2010,05,03,16,41,9.30
2010,05,03,16,42,9.30
2010,05,03,16,43,9.30
2010,05,03,16,44,9.30
2010,05,03,16,45,9.30
2010,05,03,16,46,9.30
2010,05,03,16,47,9.30
2010,05,03,16,48,9.30
2010,05,03,16,49,9.20
2010,05,03,16,50,9.20
2010,05,03,16,51,9.20
2010,05,03,16,52,9.10
2010,05,03,16,53,9.10
2010,05,03,16,54,9.10
2010,05,03,16,55,9.00
2010,05,03,16,56,9.00
2010,05,03,16,57,9.00
2010,05,03,16,58,9.00
2010,05,03,16,59,8.90
2010,05,03,17,00,8.90
2010,05,03,17,01,8.90
2010,05,03,17,02,8.90
2010,05,03,17,03,8.90
2010,05,03,17,04,8.90
2010,05,03,17,05,8.90
2010,05,03,17,06,8.90
2010,05,03,17,07,9.00
2010,05,03,17,08,9.00
2010,05,03,17,09,9.10
2010,05,03,17,10,9.10
2010,05,03,17,11,9.10
2010,05,03,17,12,9.00
2010,05,03,17,13,9.00
2010,05,03,17,14,9.00
2010,05,03,17,15,9.00
2010,05,03,17,16,9.00
2010,05,03,17,17,9.00
2010,05,03,17,18,8.90
2010,05,03,17,19,8.90
2010,05,03,17,20,8.90
2010,05,03,17,21,8.90
2010,05,03,17,22,8.80
2010,05,03,17,23,8.80
2010,05,03,17,24,8.80
2010,05,03,17,25,8.70
2010,05,03,17,26,8.70
2010,05,03,17,27,8.70
2010,05,03,17,28,8.70
2010,05,03,17,29,8.70
2010,05,03,17,30,8.60
2010,05,03,17,31,8.60
2010,05,03,17,32,8.60
2010,05,03,17,33,8.60
2010,05,03,17,34,8.60
2010,05,03,17,35,8.60
2010,05,03,17,36,8.60
2010,05,03,17,37,8.60
2010,05,03,17,38,8.60
2010,05,03,17,39,8.60
2010,05,03,17,40,8.50
2010,05,03,17,41,8.50
2010,05,03,17,42,8.40
2010,05,03,17,43,8.40
2010,05,03,17,44,8.40
2010,05,03,17,45,8.40
2010,05,03,17,46,8.40
2010,05,03,17,47,8.40
2010,05,03,17,48,8.40
2010,05,03,17,49,8.40
2010,05,03,17,50,8.40
2010,05,03,17,51,8.30
2010,05,03,17,52,8.40
2010,05,03,17,53,8.40